Year,Month,Day,Hour,Minute,Value (Times are PST for windspeed in km/hr)
2022,04,01,00,00,0.00
2022,04,01,00,01,3.20
2022,04,01,00,02,3.40
2022,04,01,00,03,3.60
2022,04,01,00,04,2.70
2022,04,01,00,05,4.60
2022,04,01,00,06,3.60
2022,04,01,00,07,4.20
2022,04,01,00,08,1.10
2022,04,01,00,09,3.30
2022,04,01,00,10,6.60
2022,04,01,00,11,2.10
2022,04,01,00,12,1.30
2022,04,01,00,13,2.60
2022,04,01,00,14,0.80
2022,04,01,00,15,3.50
2022,04,01,00,16,3.10
2022,04,01,00,17,5.10
2022,04,01,00,18,2.70
2022,04,01,00,19,2.00
2022,04,01,00,20,4.20
2022,04,01,00,21,2.90
2022,04,01,00,22,4.40
2022,04,01,00,23,3.90
2022,04,01,00,24,1.40
2022,04,01,00,25,2.80
2022,04,01,00,26,2.20
2022,04,01,00,27,3.50
2022,04,01,00,28,2.70
2022,04,01,00,29,2.60
2022,04,01,00,30,3.10
2022,04,01,00,31,3.80
2022,04,01,00,32,2.30
2022,04,01,00,33,3.40
2022,04,01,00,34,3.90
2022,04,01,00,35,1.40
2022,04,01,00,36,2.10
2022,04,01,00,37,4.90
2022,04,01,00,38,6.70
2022,04,01,00,39,6.00
2022,04,01,00,40,4.70
2022,04,01,00,41,3.80
2022,04,01,00,42,4.20
2022,04,01,00,43,2.80
2022,04,01,00,44,5.10
2022,04,01,00,45,5.10
2022,04,01,00,46,2.00
2022,04,01,00,47,4.70
2022,04,01,00,48,2.90
2022,04,01,00,49,3.90
2022,04,01,00,50,1.60
2022,04,01,00,51,2.40
2022,04,01,00,52,1.80
2022,04,01,00,53,3.50
2022,04,01,00,54,3.90
2022,04,01,00,55,5.30
2022,04,01,00,56,3.50
2022,04,01,00,57,0.50
2022,04,01,00,58,7.30
2022,04,01,00,59,1.60
2022,04,01,01,00,1.00
2022,04,01,01,01,0.40
2022,04,01,01,02,5.50
2022,04,01,01,03,4.20
2022,04,01,01,04,2.70
2022,04,01,01,05,5.90
2022,04,01,01,06,6.00
2022,04,01,01,07,3.90
2022,04,01,01,08,3.10
2022,04,01,01,09,1.30
2022,04,01,01,10,3.90
2022,04,01,01,11,0.60
2022,04,01,01,12,0.90
2022,04,01,01,13,1.90
2022,04,01,01,14,2.30
2022,04,01,01,15,2.60
2022,04,01,01,16,4.60
2022,04,01,01,17,3.80
2022,04,01,01,18,4.30
2022,04,01,01,19,4.00
2022,04,01,01,20,4.20
2022,04,01,01,21,1.50
2022,04,01,01,22,3.10
2022,04,01,01,23,1.80
2022,04,01,01,24,1.40
2022,04,01,01,25,3.10
2022,04,01,01,26,3.10
2022,04,01,01,27,2.90
2022,04,01,01,28,4.40
2022,04,01,01,29,0.30
2022,04,01,01,30,4.60
2022,04,01,01,31,4.10
2022,04,01,01,32,2.60
2022,04,01,01,33,1.60
2022,04,01,01,34,2.10
2022,04,01,01,35,3.50
2022,04,01,01,36,5.40
2022,04,01,01,37,3.80
2022,04,01,01,38,4.00
2022,04,01,01,39,1.20
2022,04,01,01,40,1.70
2022,04,01,01,41,2.30
2022,04,01,01,42,2.20
2022,04,01,01,43,2.60
2022,04,01,01,44,2.00
2022,04,01,01,45,1.00
2022,04,01,01,46,1.50
2022,04,01,01,47,1.90
2022,04,01,01,48,1.20
2022,04,01,01,49,2.90
2022,04,01,01,50,3.70
2022,04,01,01,51,3.10
2022,04,01,01,52,4.50
2022,04,01,01,53,3.70
2022,04,01,01,54,3.50
2022,04,01,01,55,1.40
2022,04,01,01,56,2.80
2022,04,01,01,57,1.40
2022,04,01,01,58,1.50
2022,04,01,01,59,4.70
2022,04,01,02,00,1.40
2022,04,01,02,01,2.40
2022,04,01,02,02,3.10
2022,04,01,02,03,1.00
2022,04,01,02,04,2.50
2022,04,01,02,05,1.70
2022,04,01,02,06,5.20
2022,04,01,02,07,4.80
2022,04,01,02,08,5.30
2022,04,01,02,09,1.90
2022,04,01,02,10,4.40
2022,04,01,02,11,3.30
2022,04,01,02,12,1.20
2022,04,01,02,13,5.10
2022,04,01,02,14,3.00
2022,04,01,02,15,1.80
2022,04,01,02,16,0.60
2022,04,01,02,17,1.50
2022,04,01,02,18,1.10
2022,04,01,02,19,1.50
2022,04,01,02,20,0.60
2022,04,01,02,21,0.20
2022,04,01,02,22,1.50
2022,04,01,02,23,2.90
2022,04,01,02,24,1.30
2022,04,01,02,25,1.40
2022,04,01,02,26,1.80
2022,04,01,02,27,1.90
2022,04,01,02,28,3.50
2022,04,01,02,29,5.60
2022,04,01,02,30,3.90
2022,04,01,02,31,4.80
2022,04,01,02,32,5.10
2022,04,01,02,33,4.80
2022,04,01,02,34,4.50
2022,04,01,02,35,2.70
2022,04,01,02,36,1.90
2022,04,01,02,37,5.10
2022,04,01,02,38,1.70
2022,04,01,02,39,3.70
2022,04,01,02,40,4.70
2022,04,01,02,41,2.30
2022,04,01,02,42,0.30
2022,04,01,02,43,0.00
2022,04,01,02,44,1.10
2022,04,01,02,45,1.50
2022,04,01,02,46,5.70
2022,04,01,02,47,2.50
2022,04,01,02,48,7.00
2022,04,01,02,49,5.50
2022,04,01,02,50,3.50
2022,04,01,02,51,3.20
2022,04,01,02,52,8.00
2022,04,01,02,53,5.00
2022,04,01,02,54,4.70
2022,04,01,02,55,6.70
2022,04,01,02,56,3.60
2022,04,01,02,57,3.70
2022,04,01,02,58,2.40
2022,04,01,02,59,2.70
2022,04,01,03,00,2.90
2022,04,01,03,01,4.30
2022,04,01,03,02,4.00
2022,04,01,03,03,2.30
2022,04,01,03,04,4.00
2022,04,01,03,05,4.60
2022,04,01,03,06,6.10
2022,04,01,03,07,5.90
2022,04,01,03,08,6.10
2022,04,01,03,09,3.20
2022,04,01,03,10,3.10
2022,04,01,03,11,2.30
2022,04,01,03,12,4.70
2022,04,01,03,13,2.60
2022,04,01,03,14,3.90
2022,04,01,03,15,4.50
2022,04,01,03,16,3.10
2022,04,01,03,17,3.90
2022,04,01,03,18,7.20
2022,04,01,03,19,4.90
2022,04,01,03,20,3.60
2022,04,01,03,21,0.60
2022,04,01,03,22,4.70
2022,04,01,03,23,5.60
2022,04,01,03,24,6.40
2022,04,01,03,25,9.30
2022,04,01,03,26,4.90
2022,04,01,03,27,5.50
2022,04,01,03,28,6.00
2022,04,01,03,29,1.40
2022,04,01,03,30,1.40
2022,04,01,03,31,2.50
2022,04,01,03,32,5.10
2022,04,01,03,33,4.50
2022,04,01,03,34,4.40
2022,04,01,03,35,4.70
2022,04,01,03,36,5.30
2022,04,01,03,37,6.40
2022,04,01,03,38,7.00
2022,04,01,03,39,4.10
2022,04,01,03,40,5.40
2022,04,01,03,41,5.00
2022,04,01,03,42,4.30
2022,04,01,03,43,3.10
2022,04,01,03,44,3.40
2022,04,01,03,45,7.10
2022,04,01,03,46,4.00
2022,04,01,03,47,1.40
2022,04,01,03,48,4.70
2022,04,01,03,49,4.70
2022,04,01,03,50,3.80
2022,04,01,03,51,5.80
2022,04,01,03,52,6.60
2022,04,01,03,53,6.00
2022,04,01,03,54,4.60
2022,04,01,03,55,5.80
2022,04,01,03,56,3.00
2022,04,01,03,57,3.10
2022,04,01,03,58,6.90
2022,04,01,03,59,3.90
2022,04,01,04,00,1.90
2022,04,01,04,01,3.60
2022,04,01,04,02,3.50
2022,04,01,04,03,6.70
2022,04,01,04,04,4.30
2022,04,01,04,05,5.80
2022,04,01,04,06,3.30
2022,04,01,04,07,4.90
2022,04,01,04,08,6.40
2022,04,01,04,09,2.70
2022,04,01,04,10,5.10
2022,04,01,04,11,3.50
2022,04,01,04,12,3.80
2022,04,01,04,13,5.90
2022,04,01,04,14,5.10
2022,04,01,04,15,3.90
2022,04,01,04,16,3.50
2022,04,01,04,17,2.20
2022,04,01,04,18,4.70
2022,04,01,04,19,6.50
2022,04,01,04,20,6.90
2022,04,01,04,21,3.00
2022,04,01,04,22,1.60
2022,04,01,04,23,2.70
2022,04,01,04,24,5.70
2022,04,01,04,25,9.10
2022,04,01,04,26,5.60
2022,04,01,04,27,6.50
2022,04,01,04,28,3.90
2022,04,01,04,29,3.80
2022,04,01,04,30,4.70
2022,04,01,04,31,2.50
2022,04,01,04,32,8.90
2022,04,01,04,33,4.50
2022,04,01,04,34,6.90
2022,04,01,04,35,4.30
2022,04,01,04,36,6.00
2022,04,01,04,37,6.00
2022,04,01,04,38,5.80
2022,04,01,04,39,3.20
2022,04,01,04,40,0.00
2022,04,01,04,41,0.10
2022,04,01,04,42,3.40
2022,04,01,04,43,7.00
2022,04,01,04,44,3.80
2022,04,01,04,45,1.70
2022,04,01,04,46,3.60
2022,04,01,04,47,4.60
2022,04,01,04,48,7.60
2022,04,01,04,49,4.20
2022,04,01,04,50,4.40
2022,04,01,04,51,4.70
2022,04,01,04,52,6.20
2022,04,01,04,53,2.00
2022,04,01,04,54,4.00
2022,04,01,04,55,6.30
2022,04,01,04,56,3.30
2022,04,01,04,57,4.00
2022,04,01,04,58,4.30
2022,04,01,04,59,4.30
2022,04,01,05,00,6.00
2022,04,01,05,01,3.70
2022,04,01,05,02,3.90
2022,04,01,05,03,2.90
2022,04,01,05,04,4.20
2022,04,01,05,05,4.10
2022,04,01,05,06,5.70
2022,04,01,05,07,4.80
2022,04,01,05,08,3.70
2022,04,01,05,09,3.50
2022,04,01,05,10,3.00
2022,04,01,05,11,5.60
2022,04,01,05,12,3.70
2022,04,01,05,13,4.70
2022,04,01,05,14,4.20
2022,04,01,05,15,1.00
2022,04,01,05,16,2.10
2022,04,01,05,17,1.60
2022,04,01,05,18,3.60
2022,04,01,05,19,1.80
2022,04,01,05,20,2.60
2022,04,01,05,21,1.40
2022,04,01,05,22,0.60
2022,04,01,05,23,4.90
2022,04,01,05,24,3.00
2022,04,01,05,25,4.00
2022,04,01,05,26,4.90
2022,04,01,05,27,2.20
2022,04,01,05,28,2.80
2022,04,01,05,29,3.10
2022,04,01,05,30,4.40
2022,04,01,05,31,5.10
2022,04,01,05,32,2.10
2022,04,01,05,33,0.70
2022,04,01,05,34,2.20
2022,04,01,05,35,4.40
2022,04,01,05,36,2.60
2022,04,01,05,37,0.20
2022,04,01,05,38,0.00
2022,04,01,05,39,1.00
2022,04,01,05,40,1.40
2022,04,01,05,41,0.60
2022,04,01,05,42,0.80
2022,04,01,05,43,1.30
2022,04,01,05,44,0.00
2022,04,01,05,45,1.00
2022,04,01,05,46,1.30
2022,04,01,05,47,1.20
2022,04,01,05,48,2.80
2022,04,01,05,49,2.30
2022,04,01,05,50,3.00
2022,04,01,05,51,4.00
2022,04,01,05,52,1.30
2022,04,01,05,53,2.50
2022,04,01,05,54,1.50
2022,04,01,05,55,1.30
2022,04,01,05,56,4.40
2022,04,01,05,57,3.40
2022,04,01,05,58,1.40
2022,04,01,05,59,1.30
2022,04,01,06,00,0.30
2022,04,01,06,01,0.60
2022,04,01,06,02,1.40
2022,04,01,06,03,2.60
2022,04,01,06,04,2.00
2022,04,01,06,05,0.40
2022,04,01,06,06,1.80
2022,04,01,06,07,1.00
2022,04,01,06,08,1.40
2022,04,01,06,09,0.60
2022,04,01,06,10,2.40
2022,04,01,06,11,1.30
2022,04,01,06,12,0.60
2022,04,01,06,13,3.50
2022,04,01,06,14,1.40
2022,04,01,06,15,4.90
2022,04,01,06,16,5.40
2022,04,01,06,17,2.30
2022,04,01,06,18,0.80
2022,04,01,06,19,1.10
2022,04,01,06,20,1.40
2022,04,01,06,21,1.40
2022,04,01,06,22,3.80
2022,04,01,06,23,2.50
2022,04,01,06,24,0.90
2022,04,01,06,25,4.60
2022,04,01,06,26,3.50
2022,04,01,06,27,4.00
2022,04,01,06,28,1.20
2022,04,01,06,29,3.20
2022,04,01,06,30,3.10
2022,04,01,06,31,2.50
2022,04,01,06,32,3.30
2022,04,01,06,33,4.20
2022,04,01,06,34,3.30
2022,04,01,06,35,1.40
2022,04,01,06,36,2.40
2022,04,01,06,37,2.00
2022,04,01,06,38,3.00
2022,04,01,06,39,5.80
2022,04,01,06,40,1.70
2022,04,01,06,41,4.30
2022,04,01,06,42,4.20
2022,04,01,06,43,4.30
2022,04,01,06,44,3.10
2022,04,01,06,45,5.50
2022,04,01,06,46,2.30
2022,04,01,06,47,2.70
2022,04,01,06,48,3.60
2022,04,01,06,49,3.60
2022,04,01,06,50,3.50
2022,04,01,06,51,3.40
2022,04,01,06,52,6.40
2022,04,01,06,53,4.30
2022,04,01,06,54,3.00
2022,04,01,06,55,2.30
2022,04,01,06,56,0.20
2022,04,01,06,57,0.40
2022,04,01,06,58,1.90
2022,04,01,06,59,4.30
2022,04,01,07,00,4.30
2022,04,01,07,01,1.60
2022,04,01,07,02,2.00
2022,04,01,07,03,1.90
2022,04,01,07,04,1.80
2022,04,01,07,05,5.60
2022,04,01,07,06,3.90
2022,04,01,07,07,0.80
2022,04,01,07,08,4.20
2022,04,01,07,09,7.10
2022,04,01,07,10,0.80
2022,04,01,07,11,1.20
2022,04,01,07,12,5.80
2022,04,01,07,13,2.40
2022,04,01,07,14,0.20
2022,04,01,07,15,1.40
2022,04,01,07,16,0.00
2022,04,01,07,17,0.20
2022,04,01,07,18,6.50
2022,04,01,07,19,4.70
2022,04,01,07,20,1.40
2022,04,01,07,21,1.90
2022,04,01,07,22,4.20
2022,04,01,07,23,3.20
2022,04,01,07,24,3.40
2022,04,01,07,25,4.60
2022,04,01,07,26,2.70
2022,04,01,07,27,2.00
2022,04,01,07,28,1.00
2022,04,01,07,29,1.40
2022,04,01,07,30,0.00
2022,04,01,07,31,2.90
2022,04,01,07,32,3.20
2022,04,01,07,33,0.50
2022,04,01,07,34,2.40
2022,04,01,07,35,0.90
2022,04,01,07,36,1.00
2022,04,01,07,37,1.80
2022,04,01,07,38,3.50
2022,04,01,07,39,2.70
2022,04,01,07,40,2.60
2022,04,01,07,41,4.30
2022,04,01,07,42,1.30
2022,04,01,07,43,1.30
2022,04,01,07,44,0.00
2022,04,01,07,45,0.10
2022,04,01,07,46,1.10
2022,04,01,07,47,0.60
2022,04,01,07,48,1.40
2022,04,01,07,49,0.40
2022,04,01,07,50,0.00
2022,04,01,07,51,0.10
2022,04,01,07,52,0.00
2022,04,01,07,53,0.20
2022,04,01,07,54,1.30
2022,04,01,07,55,0.30
2022,04,01,07,56,1.30
2022,04,01,07,57,1.00
2022,04,01,07,58,0.20
2022,04,01,07,59,0.00
2022,04,01,08,00,0.00
2022,04,01,08,01,0.10
2022,04,01,08,02,0.80
2022,04,01,08,03,1.10
2022,04,01,08,04,0.10
2022,04,01,08,05,0.10
2022,04,01,08,06,0.40
2022,04,01,08,07,0.30
2022,04,01,08,08,0.00
2022,04,01,08,09,0.00
2022,04,01,08,10,0.00
2022,04,01,08,11,0.00
2022,04,01,08,12,0.30
2022,04,01,08,13,1.20
2022,04,01,08,14,0.50
2022,04,01,08,15,2.00
2022,04,01,08,16,1.10
2022,04,01,08,17,1.30
2022,04,01,08,18,0.00
2022,04,01,08,19,0.50
2022,04,01,08,20,1.10
2022,04,01,08,21,1.00
2022,04,01,08,22,0.40
2022,04,01,08,23,0.80
2022,04,01,08,24,0.80
2022,04,01,08,25,3.50
2022,04,01,08,26,2.60
2022,04,01,08,27,2.20
2022,04,01,08,28,0.60
2022,04,01,08,29,2.60
2022,04,01,08,30,2.40
2022,04,01,08,31,1.40
2022,04,01,08,32,1.00
2022,04,01,08,33,1.90
2022,04,01,08,34,1.40
2022,04,01,08,35,0.70
2022,04,01,08,36,2.50
2022,04,01,08,37,3.30
2022,04,01,08,38,2.20
2022,04,01,08,39,2.10
2022,04,01,08,40,2.10
2022,04,01,08,41,2.40
2022,04,01,08,42,1.20
2022,04,01,08,43,1.10
2022,04,01,08,44,4.30
2022,04,01,08,45,1.20
2022,04,01,08,46,2.00
2022,04,01,08,47,1.30
2022,04,01,08,48,0.80
2022,04,01,08,49,2.30
2022,04,01,08,50,0.10
2022,04,01,08,51,0.40
2022,04,01,08,52,0.00
2022,04,01,08,53,1.30
2022,04,01,08,54,2.70
2022,04,01,08,55,0.20
2022,04,01,08,56,2.30
2022,04,01,08,57,3.40
2022,04,01,08,58,0.20
2022,04,01,08,59,0.50
2022,04,01,09,00,0.60
2022,04,01,09,01,0.20
2022,04,01,09,02,1.40
2022,04,01,09,03,0.20
2022,04,01,09,04,0.00
2022,04,01,09,05,0.00
2022,04,01,09,06,0.00
2022,04,01,09,07,0.00
2022,04,01,09,08,0.50
2022,04,01,09,09,2.10
2022,04,01,09,10,2.20
2022,04,01,09,11,1.90
2022,04,01,09,12,0.30
2022,04,01,09,13,2.30
2022,04,01,09,14,0.50
2022,04,01,09,15,4.70
2022,04,01,09,16,1.90
2022,04,01,09,17,2.30
2022,04,01,09,18,2.00
2022,04,01,09,19,0.40
2022,04,01,09,20,1.20
2022,04,01,09,21,3.40
2022,04,01,09,22,2.30
2022,04,01,09,23,0.30
2022,04,01,09,24,4.30
2022,04,01,09,25,2.70
2022,04,01,09,26,2.10
2022,04,01,09,27,1.30
2022,04,01,09,28,1.40
2022,04,01,09,29,1.10
2022,04,01,09,30,0.90
2022,04,01,09,31,3.00
2022,04,01,09,32,0.80
2022,04,01,09,33,0.00
2022,04,01,09,34,0.20
2022,04,01,09,35,0.00
2022,04,01,09,36,1.40
2022,04,01,09,37,2.40
2022,04,01,09,38,0.70
2022,04,01,09,39,0.00
2022,04,01,09,40,1.40
2022,04,01,09,41,2.70
2022,04,01,09,42,1.90
2022,04,01,09,43,2.30
2022,04,01,09,44,0.10
2022,04,01,09,45,0.00
2022,04,01,09,46,0.00
2022,04,01,09,47,1.20
2022,04,01,09,48,0.40
2022,04,01,09,49,1.90
2022,04,01,09,50,1.20
2022,04,01,09,51,1.40
2022,04,01,09,52,1.10
2022,04,01,09,53,1.40
2022,04,01,09,54,0.10
2022,04,01,09,55,0.10
2022,04,01,09,56,2.30
2022,04,01,09,57,1.10
2022,04,01,09,58,1.80
2022,04,01,09,59,0.20
2022,04,01,10,00,3.50
2022,04,01,10,01,3.80
2022,04,01,10,02,0.90
2022,04,01,10,03,1.90
2022,04,01,10,04,1.40
2022,04,01,10,05,3.60
2022,04,01,10,06,2.40
2022,04,01,10,07,3.70
2022,04,01,10,08,0.90
2022,04,01,10,09,1.90
2022,04,01,10,10,0.40
2022,04,01,10,11,0.20
2022,04,01,10,12,1.70
2022,04,01,10,13,1.80
2022,04,01,10,14,3.40
2022,04,01,10,15,0.90
2022,04,01,10,16,0.40
2022,04,01,10,17,2.80
2022,04,01,10,18,0.80
2022,04,01,10,19,1.10
2022,04,01,10,20,0.00
2022,04,01,10,21,3.00
2022,04,01,10,22,1.40
2022,04,01,10,23,3.00
2022,04,01,10,24,1.90
2022,04,01,10,25,0.10
2022,04,01,10,26,0.10
2022,04,01,10,27,3.20
2022,04,01,10,28,2.60
2022,04,01,10,29,2.60
2022,04,01,10,30,1.90
2022,04,01,10,31,1.90
2022,04,01,10,32,0.50
2022,04,01,10,33,2.20
2022,04,01,10,34,0.60
2022,04,01,10,35,0.20
2022,04,01,10,36,2.50
2022,04,01,10,37,3.00
2022,04,01,10,38,3.00
2022,04,01,10,39,0.80
2022,04,01,10,40,1.30
2022,04,01,10,41,0.20
2022,04,01,10,42,0.20
2022,04,01,10,43,0.00
2022,04,01,10,44,0.90
2022,04,01,10,45,1.10
2022,04,01,10,46,1.60
2022,04,01,10,47,0.00
2022,04,01,10,48,1.00
2022,04,01,10,49,1.00
2022,04,01,10,50,1.00
2022,04,01,10,51,1.50
2022,04,01,10,52,2.70
2022,04,01,10,53,2.40
2022,04,01,10,54,3.50
2022,04,01,10,55,2.90
2022,04,01,10,56,0.80
2022,04,01,10,57,1.60
2022,04,01,10,58,1.40
2022,04,01,10,59,2.20
2022,04,01,11,00,2.40
2022,04,01,11,01,2.20
2022,04,01,11,02,3.40
2022,04,01,11,03,1.60
2022,04,01,11,04,1.00
2022,04,01,11,05,0.20
2022,04,01,11,06,0.80
2022,04,01,11,07,0.30
2022,04,01,11,08,1.00
2022,04,01,11,09,2.50
2022,04,01,11,10,2.60
2022,04,01,11,11,1.00
2022,04,01,11,12,0.40
2022,04,01,11,13,2.10
2022,04,01,11,14,4.10
2022,04,01,11,15,2.00
2022,04,01,11,16,2.40
2022,04,01,11,17,2.60
2022,04,01,11,18,0.60
2022,04,01,11,19,2.90
2022,04,01,11,20,4.20
2022,04,01,11,21,0.20
2022,04,01,11,22,2.40
2022,04,01,11,23,0.30
2022,04,01,11,24,1.90
2022,04,01,11,25,4.00
2022,04,01,11,26,2.80
2022,04,01,11,27,3.10
2022,04,01,11,28,1.80
2022,04,01,11,29,6.40
2022,04,01,11,30,3.10
2022,04,01,11,31,4.50
2022,04,01,11,32,4.50
2022,04,01,11,33,2.40
2022,04,01,11,34,2.40
2022,04,01,11,35,1.00
2022,04,01,11,36,1.30
2022,04,01,11,37,3.20
2022,04,01,11,38,3.00
2022,04,01,11,39,4.10
2022,04,01,11,40,0.30
2022,04,01,11,41,3.20
2022,04,01,11,42,3.20
2022,04,01,11,43,1.90
2022,04,01,11,44,1.90
2022,04,01,11,45,1.00
2022,04,01,11,46,3.20
2022,04,01,11,47,4.30
2022,04,01,11,48,3.60
2022,04,01,11,49,2.60
2022,04,01,11,50,2.40
2022,04,01,11,51,2.10
2022,04,01,11,52,1.50
2022,04,01,11,53,6.30
2022,04,01,11,54,4.00
2022,04,01,11,55,4.70
2022,04,01,11,56,4.10
2022,04,01,11,57,5.10
2022,04,01,11,58,4.90
2022,04,01,11,59,6.00
2022,04,01,12,00,4.80
2022,04,01,12,01,4.20
2022,04,01,12,02,2.90
2022,04,01,12,03,6.40
2022,04,01,12,04,5.60
2022,04,01,12,05,2.00
2022,04,01,12,06,5.80
2022,04,01,12,07,4.70
2022,04,01,12,08,5.00
2022,04,01,12,09,1.10
2022,04,01,12,10,0.70
2022,04,01,12,11,1.50
2022,04,01,12,12,2.70
2022,04,01,12,13,3.50
2022,04,01,12,14,2.60
2022,04,01,12,15,3.70
2022,04,01,12,16,5.00
2022,04,01,12,17,3.70
2022,04,01,12,18,4.00
2022,04,01,12,19,1.80
2022,04,01,12,20,4.50
2022,04,01,12,21,2.20
2022,04,01,12,22,0.80
2022,04,01,12,23,2.70
2022,04,01,12,24,0.20
2022,04,01,12,25,0.90
2022,04,01,12,26,2.00
2022,04,01,12,27,1.30
2022,04,01,12,28,4.80
2022,04,01,12,29,5.60
2022,04,01,12,30,4.00
2022,04,01,12,31,1.40
2022,04,01,12,32,6.90
2022,04,01,12,33,4.30
2022,04,01,12,34,3.80
2022,04,01,12,35,3.80
2022,04,01,12,36,3.80
2022,04,01,12,37,3.90
2022,04,01,12,38,3.80
2022,04,01,12,39,4.00
2022,04,01,12,40,7.30
2022,04,01,12,41,11.00
2022,04,01,12,42,5.60
2022,04,01,12,43,2.30
2022,04,01,12,44,3.70
2022,04,01,12,45,1.90
2022,04,01,12,46,5.10
2022,04,01,12,47,2.30
2022,04,01,12,48,3.50
2022,04,01,12,49,2.90
2022,04,01,12,50,2.80
2022,04,01,12,51,4.90
2022,04,01,12,52,4.70
2022,04,01,12,53,3.50
2022,04,01,12,54,5.70
2022,04,01,12,55,6.40
2022,04,01,12,56,2.90
2022,04,01,12,57,0.80
2022,04,01,12,58,5.80
2022,04,01,12,59,2.00
2022,04,01,13,00,3.20
2022,04,01,13,01,3.20
2022,04,01,13,02,5.00
2022,04,01,13,03,1.60
2022,04,01,13,04,3.80
2022,04,01,13,05,1.20
2022,04,01,13,06,1.80
2022,04,01,13,07,1.40
2022,04,01,13,08,3.70
2022,04,01,13,09,4.20
2022,04,01,13,10,3.70
2022,04,01,13,11,3.10
2022,04,01,13,12,1.50
2022,04,01,13,13,6.30
2022,04,01,13,14,7.30
2022,04,01,13,15,8.70
2022,04,01,13,16,6.00
2022,04,01,13,17,3.80
2022,04,01,13,18,4.90
2022,04,01,13,19,4.10
2022,04,01,13,20,5.20
2022,04,01,13,21,2.90
2022,04,01,13,22,3.20
2022,04,01,13,23,5.60
2022,04,01,13,24,3.60
2022,04,01,13,25,3.60
2022,04,01,13,26,4.60
2022,04,01,13,27,5.40
2022,04,01,13,28,5.20
2022,04,01,13,29,5.10
2022,04,01,13,30,6.20
2022,04,01,13,31,3.70
2022,04,01,13,32,4.00
2022,04,01,13,33,2.70
2022,04,01,13,34,5.40
2022,04,01,13,35,2.60
2022,04,01,13,36,3.90
2022,04,01,13,37,8.50
2022,04,01,13,38,4.20
2022,04,01,13,39,6.90
2022,04,01,13,40,7.20
2022,04,01,13,41,5.40
2022,04,01,13,42,5.50
2022,04,01,13,43,0.80
2022,04,01,13,44,5.20
2022,04,01,13,45,3.90
2022,04,01,13,46,3.50
2022,04,01,13,47,0.90
2022,04,01,13,48,2.00
2022,04,01,13,49,1.40
2022,04,01,13,50,0.60
2022,04,01,13,51,4.20
2022,04,01,13,52,1.80
2022,04,01,13,53,3.10
2022,04,01,13,54,4.20
2022,04,01,13,55,2.10
2022,04,01,13,56,5.80
2022,04,01,13,57,5.70
2022,04,01,13,58,1.00
2022,04,01,13,59,3.70
2022,04,01,14,00,6.70
2022,04,01,14,01,5.00
2022,04,01,14,02,1.00
2022,04,01,14,03,3.80
2022,04,01,14,04,2.30
2022,04,01,14,05,5.50
2022,04,01,14,06,3.80
2022,04,01,14,07,5.60
2022,04,01,14,08,5.70
2022,04,01,14,09,4.10
2022,04,01,14,10,1.50
2022,04,01,14,11,0.60
2022,04,01,14,12,3.10
2022,04,01,14,13,1.70
2022,04,01,14,14,7.20
2022,04,01,14,15,5.90
2022,04,01,14,16,8.00
2022,04,01,14,17,6.80
2022,04,01,14,18,9.10
2022,04,01,14,19,8.30
2022,04,01,14,20,8.10
2022,04,01,14,21,6.30
2022,04,01,14,22,5.50
2022,04,01,14,23,8.50
2022,04,01,14,24,13.30
2022,04,01,14,25,8.90
2022,04,01,14,26,9.30
2022,04,01,14,27,11.30
2022,04,01,14,28,9.40
2022,04,01,14,29,9.20
2022,04,01,14,30,9.40
2022,04,01,14,31,6.80
2022,04,01,14,32,5.40
2022,04,01,14,33,4.30
2022,04,01,14,34,5.00
2022,04,01,14,35,3.20
2022,04,01,14,36,3.50
2022,04,01,14,37,2.30
2022,04,01,14,38,7.10
2022,04,01,14,39,3.80
2022,04,01,14,40,2.40
2022,04,01,14,41,7.10
2022,04,01,14,42,7.40
2022,04,01,14,43,4.30
2022,04,01,14,44,4.30
2022,04,01,14,45,4.40
2022,04,01,14,46,5.70
2022,04,01,14,47,7.30
2022,04,01,14,48,6.30
2022,04,01,14,49,4.90
2022,04,01,14,50,5.30
2022,04,01,14,51,6.40
2022,04,01,14,52,6.70
2022,04,01,14,53,2.80
2022,04,01,14,54,6.30
2022,04,01,14,55,4.10
2022,04,01,14,56,1.20
2022,04,01,14,57,0.80
2022,04,01,14,58,0.00
2022,04,01,14,59,2.50
2022,04,01,15,00,7.10
2022,04,01,15,01,7.50
2022,04,01,15,02,6.10
2022,04,01,15,03,6.10
2022,04,01,15,04,3.10
2022,04,01,15,05,2.60
2022,04,01,15,06,3.30
2022,04,01,15,07,4.20
2022,04,01,15,08,6.40
2022,04,01,15,09,6.50
2022,04,01,15,10,5.10
2022,04,01,15,11,4.00
2022,04,01,15,12,3.10
2022,04,01,15,13,4.70
2022,04,01,15,14,1.40
2022,04,01,15,15,0.90
2022,04,01,15,16,3.50
2022,04,01,15,17,3.50
2022,04,01,15,18,3.20
2022,04,01,15,19,4.10
2022,04,01,15,20,2.00
2022,04,01,15,21,1.60
2022,04,01,15,22,2.70
2022,04,01,15,23,4.20
2022,04,01,15,24,4.40
2022,04,01,15,25,0.80
2022,04,01,15,26,1.50
2022,04,01,15,27,0.50
2022,04,01,15,28,1.20
2022,04,01,15,29,0.80
2022,04,01,15,30,2.20
2022,04,01,15,31,4.70
2022,04,01,15,32,2.70
2022,04,01,15,33,5.10
2022,04,01,15,34,6.40
2022,04,01,15,35,5.40
2022,04,01,15,36,6.60
2022,04,01,15,37,5.10
2022,04,01,15,38,3.50
2022,04,01,15,39,0.30
2022,04,01,15,40,0.20
2022,04,01,15,41,1.10
2022,04,01,15,42,1.50
2022,04,01,15,43,0.90
2022,04,01,15,44,0.60
2022,04,01,15,45,0.80
2022,04,01,15,46,0.60
2022,04,01,15,47,3.10
2022,04,01,15,48,1.30
2022,04,01,15,49,0.80
2022,04,01,15,50,0.20
2022,04,01,15,51,1.60
2022,04,01,15,52,2.70
2022,04,01,15,53,1.40
2022,04,01,15,54,0.20
2022,04,01,15,55,1.70
2022,04,01,15,56,3.40
2022,04,01,15,57,1.80
2022,04,01,15,58,0.60
2022,04,01,15,59,4.70
2022,04,01,16,00,1.10
2022,04,01,16,01,1.70
2022,04,01,16,02,0.40
2022,04,01,16,03,0.00
2022,04,01,16,04,0.00
2022,04,01,16,05,1.90
2022,04,01,16,06,1.80
2022,04,01,16,07,0.20
2022,04,01,16,08,0.30
2022,04,01,16,09,0.60
2022,04,01,16,10,0.80
2022,04,01,16,11,0.00
2022,04,01,16,12,0.00
2022,04,01,16,13,0.30
2022,04,01,16,14,1.60
2022,04,01,16,15,0.00
2022,04,01,16,16,1.00
2022,04,01,16,17,1.50
2022,04,01,16,18,0.00
2022,04,01,16,19,0.40
2022,04,01,16,20,0.10
2022,04,01,16,21,0.00
2022,04,01,16,22,0.00
2022,04,01,16,23,0.00
2022,04,01,16,24,0.00
2022,04,01,16,25,0.00
2022,04,01,16,26,0.00
2022,04,01,16,27,0.00
2022,04,01,16,28,0.00
2022,04,01,16,29,1.40
2022,04,01,16,30,1.10
2022,04,01,16,31,0.00
2022,04,01,16,32,0.00
2022,04,01,16,33,0.00
2022,04,01,16,34,0.00
2022,04,01,16,35,0.00
2022,04,01,16,36,0.00
2022,04,01,16,37,0.00
2022,04,01,16,38,0.00
2022,04,01,16,39,0.30
2022,04,01,16,40,0.00
2022,04,01,16,41,0.00
2022,04,01,16,42,0.00
2022,04,01,16,43,0.00
2022,04,01,16,44,0.00
2022,04,01,16,45,0.70
2022,04,01,16,46,1.00
2022,04,01,16,47,0.00
2022,04,01,16,48,0.00
2022,04,01,16,49,0.00
2022,04,01,16,50,0.60
2022,04,01,16,51,1.80
2022,04,01,16,52,1.30
2022,04,01,16,53,0.50
2022,04,01,16,54,0.00
2022,04,01,16,55,0.00
2022,04,01,16,56,0.00
2022,04,01,16,57,0.00
2022,04,01,16,58,0.00
2022,04,01,16,59,0.00
2022,04,01,17,00,0.20
2022,04,01,17,01,2.20
2022,04,01,17,02,0.30
2022,04,01,17,03,0.90
2022,04,01,17,04,0.00
2022,04,01,17,05,0.60
2022,04,01,17,06,0.00
2022,04,01,17,07,0.00
2022,04,01,17,08,0.00
2022,04,01,17,09,0.00
2022,04,01,17,10,1.50
2022,04,01,17,11,0.00
2022,04,01,17,12,0.00
2022,04,01,17,13,0.00
2022,04,01,17,14,0.00
2022,04,01,17,15,0.00
2022,04,01,17,16,0.60
2022,04,01,17,17,1.40
2022,04,01,17,18,0.60
2022,04,01,17,19,0.00
2022,04,01,17,20,0.00
2022,04,01,17,21,0.00
2022,04,01,17,22,0.20
2022,04,01,17,23,0.30
2022,04,01,17,24,0.00
2022,04,01,17,25,0.00
2022,04,01,17,26,0.70
2022,04,01,17,27,0.80
2022,04,01,17,28,0.00
2022,04,01,17,29,0.20
2022,04,01,17,30,1.80
2022,04,01,17,31,1.40
2022,04,01,17,32,0.00
2022,04,01,17,33,1.00
2022,04,01,17,34,1.80
2022,04,01,17,35,1.90
2022,04,01,17,36,0.00
2022,04,01,17,37,0.00
2022,04,01,17,38,0.20
2022,04,01,17,39,0.20
2022,04,01,17,40,1.50
2022,04,01,17,41,0.30
2022,04,01,17,42,0.00
2022,04,01,17,43,1.00
2022,04,01,17,44,1.10
2022,04,01,17,45,0.20
2022,04,01,17,46,1.70
2022,04,01,17,47,0.60
2022,04,01,17,48,3.00
2022,04,01,17,49,2.30
2022,04,01,17,50,2.50
2022,04,01,17,51,0.00
2022,04,01,17,52,0.00
2022,04,01,17,53,0.00
2022,04,01,17,54,0.00
2022,04,01,17,55,0.00
2022,04,01,17,56,0.00
2022,04,01,17,57,0.00
2022,04,01,17,58,0.30
2022,04,01,17,59,0.00
2022,04,01,18,00,0.00
2022,04,01,18,01,0.00
2022,04,01,18,02,0.00
2022,04,01,18,03,0.00
2022,04,01,18,04,0.00
2022,04,01,18,05,0.00
2022,04,01,18,06,0.00